Content
SEND FEEDBACK

Daily
Averages
Monthly
Summary
United Kingdom

LONDON, ENGLAND


Home > Europe > United Kingdom > England
Elevation: 203 feet     Latitude: 51 09N     Longitude: 000 11W

WEATHER
 
SELECT A DAY
Number of Records: 296,286;   Date Range: 7/1/96 - 9/30/14
 
SHARE

PRINT THIS DATA

[ ← Previous Day ]
WEATHER ALMANAC - FEBRUARY 16, 2014
[ Next Day → ]
[ °C ]   °F
Weather ElementAverageHighLow
Temperature42 °F50 °F (1:50 pm)35.6 °F (4:50 am)
Dewpoint36.7 °F41 °F (6:50 pm)33.8 °F (4:20 am)
Humidity82.4 %100 % (9:50 pm)54 % (2:20 pm)
Barometer29.74 in29.80 in (10:20 am)29.62 in (12:50 am)
Wind Speed6.2 mph12.7 mph (12:20 pm)
Weather ElementAverage
Visibility5.8 mi
Wind DirectionSSE (174.3 °)

Weather ElementTotal
Precipitation---
Heating Degree Days22.2 (Base 65)
Averaged from 47 records on February 16, 2014
WEATHER CONDITIONS BREAKOUT
WIND DIRECTION BREAKOUT
WEATHER BY HOUR - FEBRUARY 16, 2014
[ °C ]   °F
Local TimeTemperatureDewpointHumidityBarometerVisibilityWind DirectionWind SpeedGust SpeedPrecipitationEventsConditions
12:50 AM39.2 °F35.6 °F87 %29.62 inSW (230°)5.8 mphClear
1:20 AM39.2 °F35.6 °F87 %29.65 inSW (230°)4.6 mphClear
1:50 AM39.2 °F35.6 °F87 %29.65 inSW (230°)8.1 mphClear
2:20 AM37.4 °F35.6 °F93 %29.65 inSW (220°)8.1 mphClear
2:50 AM37.4 °F35.6 °F93 %29.65 inSW (230°)8.1 mphClear
3:20 AM37.4 °F35.6 °F93 %29.68 inSW (220°)6.9 mphClear
3:50 AM37.4 °F35.6 °F93 %29.68 inSW (220°)6.9 mphClear
4:20 AM37.4 °F33.8 °F87 %29.68 inSW (230°)5.8 mphClear
4:50 AM35.6 °F33.8 °F93 %29.71 inSW (230°)5.8 mphClear
5:20 AM37.4 °F33.8 °F87 %29.71 inSW (230°)6.9 mphClear
5:50 AM37.4 °F33.8 °F87 %29.71 inSW (230°)9.2 mphClear
6:20 AM37.4 °F35.6 °F93 %29.71 inWSW (240°)9.2 mphClear
6:50 AM37.4 °F33.8 °F87 %29.71 inSW (230°)6.9 mphClear
7:20 AM37.4 °F33.8 °F87 %29.74 inWSW (250°)6.9 mphClear
7:50 AM37.4 °F33.8 °F87 %29.74 inWSW (250°)9.2 mphClear
8:20 AM37.4 °F33.8 °F87 %29.77 inWSW (240°)5.8 mphClear
8:50 AM39.2 °F35.6 °F87 %29.77 inSW (230°)5.8 mphClear
9:20 AM41.0 °F35.6 °F81 %29.77 inSW (230°)8.1 mphClear
9:50 AM42.8 °F37.4 °F81 %29.77 inWSW (240°)6.9 mphClear
10:20 AM44.6 °F37.4 °F76 %29.80 inWSW (240°)8.1 mphClear
10:50 AM44.6 °F37.4 °F76 %29.80 inSW (230°)8.1 mphClear
11:20 AM46.4 °F37.4 °F71 %29.80 in6.2 miVariable6.9 mphPartly Cloudy
11:50 AM46.4 °F35.6 °F66 %29.80 in6.2 miSW (230°)8.1 mphPartly Cloudy
12:20 PM46.4 °F35.6 °F66 %29.80 in6.2 miWSW (240°)12.7 mphPartly Cloudy
12:50 PM48.2 °F35.6 °F62 %29.80 in6.2 miWSW (240°)11.5 mphPartly Cloudy
1:20 PM46.4 °F35.6 °F66 %29.77 in6.2 miWSW (240°)8.1 mphPartly Cloudy
1:50 PM50.0 °F37.4 °F62 %29.77 in6.2 miWSW (240°)6.9 mphScattered Clouds
2:20 PM50.0 °F33.8 °F54 %29.77 in6.2 miSSW (210°)10.4 mphScattered Clouds
2:50 PM48.2 °F37.4 °F66 %29.77 in6.2 miSW (220°)10.4 mphScattered Clouds
3:20 PM48.2 °F37.4 °F66 %29.77 in6.2 miSW (220°)10.4 mphPartly Cloudy
3:50 PM48.2 °F37.4 °F66 %29.74 in6.2 miSouth (190°)8.1 mphScattered Clouds
4:20 PM48.2 °F37.4 °F66 %29.74 in6.2 miSSW (210°)6.9 mphScattered Clouds
4:50 PM46.4 °F37.4 °F71 %29.74 in6.2 miSSW (200°)5.8 mphPartly Cloudy
5:20 PM44.6 °F39.2 °F81 %29.74 in6.2 miSouth (190°)4.6 mphPartly Cloudy
5:50 PM44.6 °F39.2 °F81 %29.74 inSouth (180°)4.6 mphClear
6:20 PM42.8 °F39.2 °F87 %29.77 in6.2 miSouth (170°)3.5 mphPartly Cloudy
6:50 PM44.6 °F41.0 °F87 %29.77 in6.2 miSouth (170°)3.5 mphScattered Clouds
7:20 PM44.6 °F41.0 °F87 %29.77 in6.2 miVariable2.3 mphScattered Clouds
7:50 PM44.6 °F41.0 °F87 %29.74 in5.6 miVariable2.3 mphPartly Cloudy
8:20 PM42.8 °F41.0 °F93 %29.74 in5.6 miVariable2.3 mphScattered Clouds
8:50 PM42.8 °F41.0 °F93 %29.74 in5.6 miSSE (160°)2.3 mphPartly Cloudy
9:20 PM41.0 °F39.2 °F93 %29.74 in5.6 miVariable2.3 mphPartly Cloudy
9:50 PM39.2 °F39.2 °F100 %29.74 in5.6 miCalmPartly Cloudy
10:20 PM39.2 °F37.4 °F93 %29.74 in5.0 miCalmPartly Cloudy
10:50 PM39.2 °F37.4 °F93 %29.74 in5.0 miVariable2.3 mph
11:20 PM39.2 °F37.4 °F93 %29.74 in5.0 miCalm
11:50 PM37.4 °F35.6 °F93 %29.74 in3.7 miVariable2.3 mphFogPatches of Fog
Hourly data recorded from EGKK, located miles away from London, England







STORIES FROM OUR PARTNERS